STARLINK-35190

Last updated on Mon Oct 20 2025 00:02:05 GMT+0000 (Coordinated Universal Time)

1 65663U 25211M 25291.85603054 -.00142417 00000+0 -27116-2 0 9996 2 65663 97.6051 334.0026 0004202 51.5537 308.6089 15.48669602 5688
UTC large
Height (km)
Speed (km/s)
/
Latitude / Longitude
Inclination (degrees)
Orbital Period (minutes)
Azimuth
Elevation
Range (km)
Doppler Factor

Next 0 passes for location: London (51.5072 / 0.1276)

Sorry there are no passes over London.
STARLINK-35190